User: anonymous
Location: Bangkok
(13.7500°N, 100.5170°E)
Time: 19:27:13
(UTC+07:00)
Language:

Cosmos 1898 Rocket - Orbit

View from above orbital plane
View from above orbital plane
View from above satellite
View from above satellite

Ground track
Ground track

The orbit data is extracted from the following two-line orbital elements,

1 18586U 87098B   14274.48042398  .00000284  00000-0  10577-3 0  1401
2 18586 074.0071 317.4596 0022129 250.1967 211.5747 14.36464112405233
Epoch (UTC): 01 October 2014 11:31:48
Eccentricity: 0.0022129
inclination: 74.0071°
perigee height: 754 km
apogee height: 786 km
right ascension of ascending node: 317.4596°
argument of perigee: 250.1967°
revolutions per day: 14.36464112
mean anomaly at epoch: 211.5747°
orbit number at epoch: 40523

The dashed part of the orbit path shows where the satellite is in the earth's shadow,  

DLR